CCA2071 ZBAD-VTBS

Flight info

Callsign CCA2071
Flight time N/A
Altitude 34100
Route OMDEK W37 AVLEN/K0878S1100 W37 OLMIB W83 GOSMA R343 WUY R474 TEBAK/K0865F360 R474 NOB B465 MC R474 LAVOS/N0465F360 R474 NOHET M648 UDN Y1 UBLOD EASTE3C
Aircraft B38M/M-SDE1FGHILORVWXY/HB1

Departure

Time 2026-04-12 10:37
Airport Beijing Daxing International Airport (ZBAD)

Arrival

Time N/A
Airport Suvarnabhumi Airport (VTBS)
Time Latitude Longitude Altitude Speed Heading
2026-04-12 09:45 39.50898 116.40660 91 ft 0 kts 143°
2026-04-12 10:11 39.50899 116.40659 91 ft 1 kts 143°
2026-04-12 10:12 39.50911 116.40648 91 ft 2 kts 143°
2026-04-12 10:12 39.50923 116.40636 91 ft 2 kts 143°
2026-04-12 10:12 39.50932 116.40628 91 ft 1 kts 143°
2026-04-12 10:12 39.50944 116.40616 91 ft 2 kts 137°
2026-04-12 10:13 39.50955 116.40602 91 ft 2 kts 133°
2026-04-12 10:13 39.50965 116.40588 91 ft 2 kts 128°
2026-04-12 10:13 39.50975 116.40571 91 ft 2 kts 123°
2026-04-12 10:13 39.50983 116.40554 91 ft 2 kts 119°
2026-04-12 10:14 39.50990 116.40537 91 ft 2 kts 114°
2026-04-12 10:14 39.50996 116.40517 91 ft 2 kts 109°
2026-04-12 10:14 39.51001 116.40498 91 ft 2 kts 104°
2026-04-12 10:14 39.51004 116.40479 91 ft 2 kts 99°
2026-04-12 10:15 39.51006 116.40464 91 ft 0 kts 96°
2026-04-12 10:15 39.51006 116.40459 91 ft 0 kts 94°
2026-04-12 10:24 39.51006 116.40461 91 ft 1 kts 94°
2026-04-12 10:25 39.51004 116.40485 91 ft 3 kts 95°
2026-04-12 10:25 39.50997 116.40522 91 ft 4 kts 109°
2026-04-12 10:25 39.50977 116.40550 91 ft 4 kts 170°
2026-04-12 10:25 39.50941 116.40543 91 ft 5 kts 202°
2026-04-12 10:26 39.50911 116.40505 91 ft 6 kts 239°
2026-04-12 10:26 39.50893 116.40448 91 ft 6 kts 250°
2026-04-12 10:26 39.50876 116.40384 91 ft 7 kts 250°
2026-04-12 10:26 39.50866 116.40311 91 ft 8 kts 261°
2026-04-12 10:27 39.50854 116.40228 91 ft 9 kts 256°
2026-04-12 10:27 39.50838 116.40140 91 ft 10 kts 243°
2026-04-12 10:27 39.50771 116.40111 91 ft 12 kts 173°
2026-04-12 10:27 39.50645 116.40130 91 ft 21 kts 172°
2026-04-12 10:28 39.50458 116.40163 91 ft 28 kts 173°
2026-04-12 10:28 39.50240 116.40196 91 ft 32 kts 174°
2026-04-12 10:28 39.50041 116.40229 91 ft 20 kts 171°
2026-04-12 10:28 39.49952 116.40263 91 ft 11 kts 133°
2026-04-12 10:29 39.49983 116.40346 91 ft 12 kts
2026-04-12 10:29 39.50040 116.40428 91 ft 15 kts 82°
2026-04-12 10:29 39.50059 116.40623 91 ft 24 kts 83°
2026-04-12 10:29 39.50085 116.40872 91 ft 29 kts 82°
2026-04-12 10:30 39.50113 116.41169 91 ft 32 kts 79°
2026-04-12 10:30 39.50141 116.41451 91 ft 26 kts 82°
2026-04-12 10:30 39.50156 116.41669 91 ft 20 kts 82°
2026-04-12 10:30 39.50179 116.41885 91 ft 28 kts 81°
2026-04-12 10:31 39.50202 116.42140 91 ft 16 kts 74°
2026-04-12 10:31 39.50294 116.42182 91 ft 16 kts 353°
2026-04-12 10:31 39.50427 116.42161 91 ft 21 kts 352°
2026-04-12 10:31 39.50600 116.42134 91 ft 28 kts 353°
2026-04-12 10:32 39.50824 116.42097 91 ft 33 kts 352°
2026-04-12 10:32 39.51069 116.42060 91 ft 36 kts 353°
2026-04-12 10:32 39.51303 116.42022 91 ft 19 kts 353°
2026-04-12 10:32 39.51390 116.42039 91 ft 11 kts 50°
2026-04-12 10:33 39.51410 116.42157 91 ft 14 kts 83°
2026-04-12 10:33 39.51425 116.42311 91 ft 18 kts 82°
2026-04-12 10:33 39.51445 116.42499 91 ft 22 kts 82°
2026-04-12 10:33 39.51468 116.42718 91 ft 25 kts 83°
2026-04-12 10:34 39.51487 116.42966 91 ft 27 kts 83°
2026-04-12 10:34 39.51550 116.43103 91 ft 16 kts 17°
2026-04-12 10:34 39.51655 116.43140 91 ft 7 kts 36°
2026-04-12 10:34 39.51659 116.43173 91 ft 0 kts 103°
2026-04-12 10:35 39.51659 116.43174 91 ft 0 kts 103°
2026-04-12 10:36 39.51651 116.43223 91 ft 31 kts 102°
2026-04-12 10:36 39.51527 116.43897 91 ft 111 kts 102°
2026-04-12 10:36 39.51290 116.45193 117 ft 171 kts 103°
2026-04-12 10:37 39.51023 116.46697 869 ft 172 kts 101°
2026-04-12 10:37 39.50708 116.48151 1685 ft 174 kts 119°
2026-04-12 10:37 39.49702 116.49140 2005 ft 200 kts 168°
2026-04-12 10:37 39.48328 116.48891 2664 ft 207 kts 206°
2026-04-12 10:38 39.47107 116.47852 3317 ft 213 kts 215°
2026-04-12 10:38 39.45845 116.46621 3768 ft 232 kts 216°
2026-04-12 10:38 39.44532 116.45333 4373 ft 243 kts 216°
2026-04-12 10:38 39.43154 116.44003 4976 ft 254 kts 215°
2026-04-12 10:39 39.41651 116.42591 5603 ft 265 kts 214°
2026-04-12 10:39 39.40008 116.41227 6233 ft 275 kts 205°
2026-04-12 10:39 39.38114 116.40232 6879 ft 285 kts 197°
2026-04-12 10:39 39.36124 116.39426 7514 ft 292 kts 196°
2026-04-12 10:40 39.34105 116.38627 8246 ft 293 kts 197°
2026-04-12 10:40 39.32085 116.37791 9004 ft 297 kts 198°
2026-04-12 10:40 39.30082 116.36934 9758 ft 299 kts 199°
2026-04-12 10:40 39.28048 116.36049 10522 ft 300 kts 199°
2026-04-12 10:41 39.26030 116.35169 11282 ft 300 kts 200°
2026-04-12 10:41 39.23945 116.34260 12032 ft 303 kts 200°
2026-04-12 10:41 39.21896 116.33368 12666 ft 309 kts 200°
2026-04-12 10:41 39.19804 116.32457 13307 ft 314 kts 200°
2026-04-12 10:42 39.17672 116.31531 13948 ft 318 kts 200°
2026-04-12 10:42 39.15456 116.30570 14606 ft 322 kts 200°
2026-04-12 10:42 39.13223 116.29601 15260 ft 326 kts 201°
2026-04-12 10:42 39.10926 116.28607 15927 ft 329 kts 201°
2026-04-12 10:43 39.06368 116.26633 17240 ft 333 kts 201°
2026-04-12 10:43 39.04085 116.25645 17892 ft 335 kts 201°
2026-04-12 10:43 39.01780 116.24649 18515 ft 336 kts 202°
2026-04-12 10:44 38.99440 116.23639 18999 ft 342 kts 202°
2026-04-12 10:44 38.97013 116.22589 19406 ft 350 kts 202°
2026-04-12 10:44 38.94577 116.21536 19798 ft 358 kts 202°
2026-04-12 10:44 38.92085 116.20463 20186 ft 365 kts 202°
2026-04-12 10:45 38.89525 116.19361 20583 ft 372 kts 202°
2026-04-12 10:45 38.86950 116.18255 20978 ft 378 kts 202°
2026-04-12 10:45 38.84322 116.17127 21363 ft 384 kts 202°
2026-04-12 10:45 38.81622 116.15968 21759 ft 389 kts 202°
2026-04-12 10:46 38.78916 116.14806 22150 ft 394 kts 202°
2026-04-12 10:46 38.76184 116.13635 22542 ft 399 kts 202°
2026-04-12 10:46 38.73368 116.12429 22938 ft 403 kts 202°
2026-04-12 10:46 38.70569 116.11231 23337 ft 408 kts 202°
2026-04-12 10:47 38.67732 116.10021 23743 ft 411 kts 202°
2026-04-12 10:47 38.64822 116.08877 24157 ft 417 kts 199°
2026-04-12 10:47 38.61883 116.08001 24552 ft 422 kts 195°
2026-04-12 10:47 38.58835 116.07272 24961 ft 425 kts 194°
2026-04-12 10:48 38.55767 116.06605 25362 ft 428 kts 194°
2026-04-12 10:48 38.52676 116.05943 25764 ft 430 kts 194°
2026-04-12 10:48 38.49564 116.05274 26169 ft 433 kts 194°
2026-04-12 10:48 38.46517 116.04608 26554 ft 434 kts 194°
2026-04-12 10:49 38.43360 116.03908 26971 ft 436 kts 194°
2026-04-12 10:49 38.40234 116.03204 27375 ft 437 kts 194°
2026-04-12 10:49 38.37082 116.02489 27780 ft 438 kts 194°
2026-04-12 10:49 38.33949 116.01775 28179 ft 439 kts 195°
2026-04-12 10:50 38.30768 116.01051 28589 ft 440 kts 194°
2026-04-12 10:50 38.27632 116.00337 28988 ft 441 kts 194°
2026-04-12 10:50 38.24457 115.99614 29397 ft 441 kts 195°
2026-04-12 10:50 38.21289 115.98891 29803 ft 442 kts 195°
2026-04-12 10:51 38.18115 115.98167 30217 ft 442 kts 195°
2026-04-12 10:51 38.14936 115.97440 30633 ft 441 kts 195°
2026-04-12 10:51 38.11780 115.96719 31046 ft 441 kts 195°
2026-04-12 10:51 38.08603 115.95994 31468 ft 440 kts 195°
2026-04-12 10:52 38.05456 115.95277 31883 ft 440 kts 195°
2026-04-12 10:52 38.02293 115.94556 32300 ft 438 kts 195°
2026-04-12 10:52 37.99171 115.93846 32713 ft 437 kts 195°
2026-04-12 10:52 37.96051 115.93138 33131 ft 435 kts 195°
2026-04-12 10:53 37.92902 115.92424 33558 ft 433 kts 195°
2026-04-12 10:53 37.89865 115.91735 33933 ft 432 kts 195°
2026-04-12 10:53 37.83640 115.90321 33981 ft 432 kts 195°
2026-04-12 10:54 37.77430 115.88910 33985 ft 432 kts 195°
2026-04-12 10:54 37.71217 115.87504 33983 ft 433 kts 195°
2026-04-12 10:55 37.65062 115.86115 33983 ft 433 kts 195°
2026-04-12 10:55 37.58846 115.84712 33982 ft 432 kts 195°
2026-04-12 10:56 37.52673 115.83322 33984 ft 432 kts 195°
2026-04-12 10:56 37.46476 115.81928 33984 ft 432 kts 195°
2026-04-12 10:57 37.40312 115.80544 33985 ft 432 kts 195°
2026-04-12 10:57 37.34122 115.79160 33983 ft 432 kts 195°
2026-04-12 10:58 37.27983 115.77787 33983 ft 431 kts 195°
2026-04-12 10:58 37.21829 115.76411 33985 ft 431 kts 194°
2026-04-12 10:59 37.15699 115.75045 33985 ft 431 kts 194°
2026-04-12 10:59 37.09536 115.73676 33986 ft 430 kts 194°
2026-04-12 11:00 37.03398 115.72313 33987 ft 430 kts 194°
2026-04-12 11:00 36.97300 115.70959 33968 ft 429 kts 194°
2026-04-12 11:01 36.91170 115.69601 33982 ft 429 kts 194°
2026-04-12 11:01 36.85072 115.68257 33985 ft 428 kts 194°
2026-04-12 11:02 36.78973 115.66913 33985 ft 427 kts 194°
2026-04-12 11:02 36.72910 115.65578 33972 ft 426 kts 195°
2026-04-12 11:03 36.66817 115.64236 33967 ft 425 kts 195°
2026-04-12 11:03 36.60746 115.62903 33987 ft 423 kts 195°
2026-04-12 11:04 36.54712 115.61580 33992 ft 423 kts 195°
2026-04-12 11:04 36.48711 115.60266 33984 ft 422 kts 195°
2026-04-12 11:05 36.42695 115.58949 33992 ft 420 kts 195°
2026-04-12 11:05 36.36678 115.57636 33988 ft 419 kts 195°
2026-04-12 11:06 36.30677 115.56331 33986 ft 418 kts 195°
2026-04-12 11:06 36.24684 115.55026 33995 ft 416 kts 195°
2026-04-12 11:07 36.18774 115.53742 33988 ft 415 kts 195°
2026-04-12 11:07 36.12843 115.52456 33987 ft 414 kts 195°
2026-04-12 11:08 36.06921 115.51172 33990 ft 413 kts 195°
2026-04-12 11:08 36.01042 115.49904 33991 ft 411 kts 195°
2026-04-12 11:09 35.95130 115.48630 33990 ft 410 kts 196°
2026-04-12 11:09 35.89295 115.47367 33984 ft 408 kts 196°
2026-04-12 11:10 35.83435 115.46107 33991 ft 407 kts 196°
2026-04-12 11:10 35.77630 115.44859 33984 ft 405 kts 197°
2026-04-12 11:11 35.71869 115.43624 33991 ft 403 kts 196°
2026-04-12 11:11 35.66101 115.42395 34007 ft 401 kts 196°
2026-04-12 11:12 35.60376 115.41174 34004 ft 400 kts 197°
2026-04-12 11:12 35.54659 115.39952 33992 ft 398 kts 197°
2026-04-12 11:13 35.48964 115.38738 33997 ft 396 kts 197°
2026-04-12 11:13 35.43317 115.37533 33998 ft 394 kts 197°
2026-04-12 11:14 35.37700 115.36337 33998 ft 392 kts 197°
2026-04-12 11:14 35.32106 115.35149 34010 ft 389 kts 197°
2026-04-12 11:15 35.26503 115.33957 34001 ft 388 kts 197°
2026-04-12 11:15 35.20972 115.32777 34009 ft 387 kts 197°
2026-04-12 11:16 35.15421 115.31602 34002 ft 387 kts 197°
2026-04-12 11:16 35.09868 115.30435 34020 ft 385 kts 197°
2026-04-12 11:17 35.04383 115.29284 34024 ft 384 kts 197°
2026-04-12 11:17 34.98872 115.28122 34006 ft 383 kts 198°
2026-04-12 11:18 34.93406 115.26968 33981 ft 381 kts 198°
2026-04-12 11:18 34.87991 115.25824 34004 ft 380 kts 198°
2026-04-12 11:19 34.82589 115.24693 34021 ft 377 kts 198°
2026-04-12 11:19 34.77217 115.23567 34072 ft 377 kts 198°
2026-04-12 11:20 34.71818 115.22440 34015 ft 377 kts 198°
2026-04-12 11:20 34.66418 115.21317 34013 ft 376 kts 198°
2026-04-12 11:21 34.61017 115.20191 34009 ft 374 kts 198°
2026-04-12 11:21 34.55650 115.19074 34013 ft 372 kts 199°
2026-04-12 11:22 34.50279 115.17952 34007 ft 371 kts 199°
2026-04-12 11:22 34.44987 115.16855 34019 ft 368 kts 199°
2026-04-12 11:23 34.39711 115.15762 34010 ft 366 kts 199°
2026-04-12 11:23 34.34478 115.14676 34023 ft 364 kts 199°
2026-04-12 11:24 34.29274 115.13599 34014 ft 363 kts 200°
2026-04-12 11:24 34.24061 115.12522 34008 ft 361 kts 199°
2026-04-12 11:25 34.18859 115.11447 34019 ft 359 kts 200°
2026-04-12 11:25 34.13715 115.10386 34031 ft 356 kts 200°
2026-04-12 11:26 34.08601 115.09335 34019 ft 353 kts 200°
2026-04-12 11:26 34.03534 115.08287 34030 ft 351 kts 200°
2026-04-12 11:27 33.98533 115.07251 34011 ft 349 kts 200°
2026-04-12 11:27 33.93575 115.06238 34033 ft 345 kts 200°
2026-04-12 11:28 33.88641 115.05231 34026 ft 343 kts 201°
2026-04-12 11:28 33.83766 115.04227 34018 ft 341 kts 200°
2026-04-12 11:29 33.78856 115.03230 34018 ft 339 kts 201°
2026-04-12 11:29 33.74014 115.02236 34024 ft 336 kts 201°
2026-04-12 11:30 33.69220 115.01258 34030 ft 334 kts 201°
2026-04-12 11:30 33.64430 115.00287 34023 ft 331 kts 202°
2026-04-12 11:31 33.59691 114.99327 34030 ft 328 kts 201°
2026-04-12 11:31 33.55020 114.98370 34015 ft 325 kts 202°
2026-04-12 11:32 33.50411 114.97429 34027 ft 322 kts 201°
2026-04-12 11:32 33.45818 114.96495 34020 ft 319 kts 202°
2026-04-12 11:33 33.41288 114.95583 34018 ft 315 kts 202°
2026-04-12 11:33 33.36827 114.94675 34023 ft 311 kts 202°
2026-04-12 11:34 33.32354 114.93771 34019 ft 307 kts 202°
2026-04-12 11:34 33.27977 114.92889 34012 ft 303 kts 202°
2026-04-12 11:35 33.23660 114.92013 34020 ft 299 kts 203°
2026-04-12 11:35 33.21555 114.91585 34014 ft 296 kts 203°
2026-04-12 11:35 33.19444 114.91162 34028 ft 293 kts 203°
2026-04-12 11:36 33.17344 114.90747 34019 ft 291 kts 203°
2026-04-12 11:36 33.15286 114.90336 34026 ft 288 kts 203°
2026-04-12 11:36 33.13242 114.89922 34005 ft 285 kts 204°
2026-04-12 11:36 33.11211 114.89516 34019 ft 282 kts 204°
2026-04-12 11:37 33.09185 114.89110 34024 ft 278 kts 204°
2026-04-12 11:37 33.07201 114.88711 34018 ft 275 kts 204°
2026-04-12 11:37 33.05233 114.88314 34017 ft 271 kts 204°
2026-04-12 11:37 33.03320 114.87931 34024 ft 268 kts 204°
2026-04-12 11:38 33.01429 114.87553 34016 ft 264 kts 205°
2026-04-12 11:38 32.99525 114.87174 34025 ft 258 kts 204°
2026-04-12 11:38 32.97690 114.86803 34006 ft 254 kts 205°
2026-04-12 11:38 32.95890 114.86449 34022 ft 248 kts 204°
2026-04-12 11:39 32.94141 114.86110 33987 ft 241 kts 206°
2026-04-12 11:39 32.92439 114.85774 33771 ft 234 kts 207°
2026-04-12 11:39 32.90826 114.85276 32520 ft 241 kts 244°
2026-04-12 11:39 32.89294 114.84572 26522 ft 435 kts 195°
2026-04-12 11:40 32.87250 114.84182 23887 ft 463 kts 191°
2026-04-12 11:40 32.83749 114.83710 28661 ft 304 kts 194°
2026-04-12 11:40 32.82066 114.83541 30709 ft 212 kts 199°
2026-04-12 11:40 32.80556 114.83337 30343 ft 226 kts 201°
2026-04-12 11:41 32.78815 114.82976 28698 ft 284 kts 197°
2026-04-12 11:41 32.76763 114.82549 28419 ft 277 kts 197°
2026-04-12 11:41 32.74889 114.82208 28977 ft 256 kts 197°
2026-04-12 11:41 32.73095 114.81883 29179 ft 241 kts 198°
2026-04-12 11:42 32.71324 114.81749 28181 ft 278 kts 155°
2026-04-12 11:42 32.69629 114.81494 21527 ft 431 kts 217°
2026-04-12 11:42 32.67064 114.79615 20852 ft 400 kts 202°
2026-04-12 11:43 32.63634 114.79282 26919 ft 185 kts 185°
2026-04-12 11:43 32.62142 114.79325 25105 ft 259 kts 202°
2026-04-12 11:43 32.60157 114.78777 23552 ft 302 kts 195°
2026-04-12 11:43 32.58030 114.78442 23994 ft 290 kts 191°
2026-04-12 11:44 32.55986 114.78216 24388 ft 280 kts 192°
2026-04-12 11:44 32.54022 114.77963 24754 ft 269 kts 194°
2026-04-12 11:44 32.52136 114.77662 25143 ft 257 kts 196°
2026-04-12 11:44 32.50338 114.77337 25540 ft 243 kts 198°
2026-04-12 11:45 32.48650 114.77015 25790 ft 227 kts 197°
2026-04-12 11:45 32.46979 114.76819 25048 ft 259 kts 160°
2026-04-12 11:45 32.45387 114.76779 19264 ft 413 kts 216°
2026-04-12 11:45 32.42960 114.74755 16471 ft 433 kts 209°
2026-04-12 11:46 32.40483 114.74044 20007 ft 324 kts 188°
2026-04-12 11:46 32.38558 114.74050 22162 ft 252 kts 184°
2026-04-12 11:46 32.36773 114.74164 22492 ft 243 kts 186°
2026-04-12 11:46 32.35056 114.74148 22779 ft 226 kts 191°
2026-04-12 11:47 32.33431 114.73907 22348 ft 234 kts 210°
2026-04-12 11:47 32.32119 114.73220 17792 ft 392 kts 172°
2026-04-12 11:47 32.29910 114.75313 12012 ft 507 kts 132°
2026-04-12 11:47 32.27646 114.77640 15537 ft 367 kts 159°
2026-04-12 11:48 32.25767 114.78362 18738 ft 248 kts 183°
2026-04-12 11:48 32.24168 114.78145 19355 ft 214 kts 217°
2026-04-12 11:48 32.22936 114.77092 19147 ft 215 kts 230°
2026-04-12 11:48 32.21845 114.75800 19068 ft 212 kts 230°
2026-04-12 11:49 32.20776 114.74547 19017 ft 206 kts 246°
2026-04-12 11:49 32.20108 114.72987 15256 ft 335 kts 264°
2026-04-12 11:49 32.20387 114.70013 12476 ft 375 kts 277°
2026-04-12 11:49 32.20189 114.67207 14436 ft 306 kts 249°
2026-04-12 11:50 32.19095 114.65290 15871 ft 271 kts 225°
2026-04-12 11:50 32.17332 114.64279 16223 ft 284 kts 192°
2026-04-12 11:50 32.15282 114.64555 16619 ft 296 kts 166°
2026-04-12 11:50 32.13269 114.65559 17041 ft 297 kts 161°
2026-04-12 11:51 32.11320 114.66653 17456 ft 296 kts 161°
2026-04-12 11:51 32.09367 114.67628 17874 ft 290 kts 168°
2026-04-12 11:51 32.07340 114.68242 18300 ft 281 kts 179°
2026-04-12 11:51 32.05342 114.68378 18720 ft 271 kts 190°
2026-04-12 11:52 32.03444 114.68148 19134 ft 263 kts 195°
2026-04-12 11:52 32.01559 114.67773 19559 ft 257 kts 197°
2026-04-12 11:52 31.99741 114.67390 19973 ft 250 kts 197°
2026-04-12 11:52 31.97976 114.67027 20389 ft 242 kts 197°
2026-04-12 11:53 31.96264 114.66684 20796 ft 233 kts 196°
2026-04-12 11:53 31.94657 114.66368 21151 ft 221 kts 197°
2026-04-12 11:53 31.93130 114.66074 21153 ft 218 kts 197°
2026-04-12 11:53 31.91761 114.65356 19220 ft 286 kts 197°
2026-04-12 11:54 31.89620 114.64976 13210 ft 446 kts 186°
2026-04-12 11:54 31.86651 114.64717 14200 ft 376 kts 192°
2026-04-12 11:54 31.84557 114.64426 17592 ft 263 kts 195°
2026-04-12 11:54 31.82862 114.64135 18602 ft 231 kts 198°
2026-04-12 11:55 31.81221 114.63777 18939 ft 225 kts 198°
2026-04-12 11:55 31.79655 114.63441 19308 ft 215 kts 198°
2026-04-12 11:55 31.78149 114.63137 19282 ft 214 kts 198°
2026-04-12 11:55 31.76667 114.62553 18164 ft 246 kts 239°
2026-04-12 11:56 31.75079 114.61316 13091 ft 390 kts 220°
2026-04-12 11:56 31.72576 114.59900 12964 ft 367 kts 192°
2026-04-12 11:56 31.70233 114.59932 15248 ft 304 kts 178°
2026-04-12 11:56 31.68197 114.60307 16216 ft 282 kts 178°
2026-04-12 11:57 31.66180 114.60548 16571 ft 278 kts 186°
2026-04-12 11:57 31.64177 114.60436 16973 ft 273 kts 193°
2026-04-12 11:57 31.62234 114.60092 17387 ft 269 kts 196°
2026-04-12 11:57 31.60342 114.59690 17798 ft 266 kts 197°
2026-04-12 11:58 31.58444 114.59291 18215 ft 263 kts 196°
2026-04-12 11:58 31.56583 114.58920 18638 ft 259 kts 196°
2026-04-12 11:58 31.54732 114.58561 19063 ft 255 kts 196°
2026-04-12 11:58 31.52910 114.58212 19485 ft 249 kts 196°
2026-04-12 11:59 31.51167 114.57879 19898 ft 242 kts 196°
2026-04-12 11:59 31.49469 114.57552 20310 ft 233 kts 196°
2026-04-12 11:59 31.47853 114.57240 20698 ft 222 kts 197°
2026-04-12 11:59 31.46303 114.56936 20893 ft 213 kts 196°
2026-04-12 12:00 31.44707 114.56691 20343 ft 236 kts 177°
2026-04-12 12:00 31.43161 114.56961 15896 ft 372 kts 207°
2026-04-12 12:00 31.40871 114.55320 12483 ft 414 kts 211°
2026-04-12 12:00 31.38496 114.54537 15639 ft 311 kts 191°
2026-04-12 12:01 31.36762 114.54518 18142 ft 222 kts 185°
2026-04-12 12:01 31.35182 114.54589 18475 ft 215 kts 189°
2026-04-12 12:01 31.33606 114.54478 18243 ft 222 kts 196°
2026-04-12 12:01 31.32009 114.54180 18031 ft 225 kts 197°
2026-04-12 12:02 31.30431 114.54266 16739 ft 281 kts 209°
2026-04-12 12:02 31.28282 114.54131 12205 ft 394 kts 194°
2026-04-12 12:02 31.25750 114.53174 12956 ft 336 kts 210°
2026-04-12 12:02 31.23990 114.52217 15623 ft 247 kts 210°
2026-04-12 12:03 31.22445 114.51463 16442 ft 228 kts 209°
2026-04-12 12:03 31.20932 114.50736 16805 ft 225 kts 210°
2026-04-12 12:03 31.19454 114.49970 17211 ft 220 kts 212°
2026-04-12 12:03 31.18033 114.49194 17614 ft 212 kts 213°
2026-04-12 12:04 31.16680 114.48450 17972 ft 204 kts 212°
2026-04-12 12:04 31.15366 114.47732 17976 ft 203 kts 214°
2026-04-12 12:04 31.14184 114.46656 16630 ft 250 kts 252°
2026-04-12 12:04 31.12543 114.45564 11359 ft 402 kts 203°
2026-04-12 12:05 31.10067 114.44511 12675 ft 327 kts 206°
2026-04-12 12:05 31.08553 114.43854 16068 ft 198 kts 208°
2026-04-12 12:05 31.07426 114.43343 16775 ft 172 kts 212°
2026-04-12 12:05 31.06107 114.42635 15666 ft 231 kts 213°
2026-04-12 12:06 31.04579 114.41788 15912 ft 221 kts 211°
2026-04-12 12:06 31.03163 114.41035 16370 ft 214 kts 211°
2026-04-12 12:06 31.01760 114.40280 16728 ft 210 kts 212°
2026-04-12 12:06 31.00417 114.39550 17109 ft 202 kts 212°
2026-04-12 12:07 30.99114 114.38835 17188 ft 198 kts 217°
2026-04-12 12:07 30.98060 114.37863 13951 ft 322 kts 210°
2026-04-12 12:07 30.95711 114.36922 10966 ft 377 kts 204°
2026-04-12 12:07 30.93650 114.35926 13646 ft 274 kts 211°
2026-04-12 12:08 30.92319 114.35223 15945 ft 182 kts 213°
2026-04-12 12:08 30.91197 114.34566 15996 ft 190 kts 213°
2026-04-12 12:08 30.89772 114.33803 15183 ft 245 kts 208°
2026-04-12 12:08 30.88010 114.32936 14641 ft 282 kts 208°
2026-04-12 12:09 30.86087 114.31799 13783 ft 310 kts 214°
2026-04-12 12:09 30.84459 114.30121 13126 ft 298 kts 244°
2026-04-12 12:09 30.84015 114.28011 14064 ft 235 kts 272°
2026-04-12 12:09 30.84434 114.26103 13626 ft 241 kts 294°
2026-04-12 12:10 30.85287 114.24303 13226 ft 240 kts 290°
2026-04-12 12:10 30.85833 114.22485 13154 ft 225 kts 280°
2026-04-12 12:10 30.86029 114.20554 12533 ft 237 kts 269°
2026-04-12 12:10 30.85999 114.18490 11633 ft 259 kts 267°
2026-04-12 12:11 30.85861 114.16236 10657 ft 280 kts 264°
2026-04-12 12:11 30.85621 114.13863 10183 ft 279 kts 262°
2026-04-12 12:11 30.85309 114.11646 10301 ft 257 kts 260°
2026-04-12 12:11 30.84893 114.09542 9931 ft 256 kts 250°
2026-04-12 12:12 30.83995 114.07721 9608 ft 253 kts 231°
2026-04-12 12:12 30.82704 114.06195 9077 ft 258 kts 227°
2026-04-12 12:12 30.81368 114.04649 8397 ft 266 kts 227°
2026-04-12 12:12 30.79990 114.03050 7787 ft 270 kts 226°
2026-04-12 12:13 30.78562 114.01530 7413 ft 265 kts 222°
2026-04-12 12:13 30.77008 114.00244 6943 ft 267 kts 208°
2026-04-12 12:13 30.75178 113.99457 6322 ft 273 kts 189°
2026-04-12 12:13 30.73293 113.99834 6052 ft 266 kts 149°
2026-04-12 12:14 30.71953 114.01416 5557 ft 267 kts 114°
2026-04-12 12:14 30.71501 114.03577 4936 ft 273 kts 92°
2026-04-12 12:14 30.71147 114.05797 4454 ft 274 kts 115°
2026-04-12 12:14 30.69910 114.07604 3447 ft 294 kts 137°
2026-04-12 12:15 30.68552 114.09284 3426 ft 268 kts 130°
2026-04-12 12:15 30.67232 114.10762 3125 ft 261 kts 131°
2026-04-12 12:15 30.66424 114.12482 3248 ft 223 kts 91°
2026-04-12 12:15 30.66839 114.14087 3048 ft 203 kts 38°
2026-04-12 12:16 30.68134 114.14680 2574 ft 196 kts
2026-04-12 12:16 30.69499 114.14236 1912 ft 205 kts 346°
2026-04-12 12:16 30.70851 114.13779 1741 ft 185 kts 359°
2026-04-12 12:16 30.72133 114.14215 1082 ft 199 kts 37°
2026-04-12 12:17 30.73150 114.15303 724 ft 190 kts 48°
2026-04-12 12:17 30.74032 114.16342 486 ft 171 kts 40°
2026-04-12 12:17 30.74851 114.17186 354 ft 146 kts 41°
2026-04-12 12:17 30.75652 114.18002 225 ft 155 kts 40°
2026-04-12 12:18 30.76409 114.18810 318 ft 140 kts 40°
2026-04-12 12:18 30.77182 114.19591 222 ft 146 kts 41°
2026-04-12 12:18 30.77952 114.20378 118 ft 127 kts 41°
2026-04-12 12:18 30.78457 114.20905 118 ft 65 kts 42°
2026-04-12 12:19 30.78670 114.21201 118 ft 40 kts 66°
2026-04-12 12:19 30.78692 114.21371 118 ft 17 kts 141°
2026-04-12 12:19 30.78589 114.21302 118 ft 22 kts 218°
2026-04-12 12:19 30.78426 114.21142 118 ft 34 kts 221°
2026-04-12 12:20 30.78291 114.20998 118 ft 28 kts 222°
2026-04-12 12:20 30.78179 114.20937 118 ft 17 kts 158°
2026-04-12 12:20 30.78085 114.21051 118 ft 21 kts 130°
2026-04-12 12:20 30.77980 114.21191 118 ft 26 kts 130°
2026-04-12 12:21 30.77849 114.21362 118 ft 28 kts 130°
2026-04-12 12:21 30.77715 114.21540 118 ft 28 kts 131°
2026-04-12 12:21 30.77572 114.21724 118 ft 29 kts 131°
2026-04-12 12:21 30.77432 114.21908 118 ft 29 kts 131°
2026-04-12 12:22 30.77298 114.22089 118 ft 20 kts 130°
2026-04-12 12:22 30.77179 114.22116 118 ft 18 kts 213°
2026-04-12 12:22 30.77077 114.22011 118 ft 19 kts 221°
2026-04-12 12:22 30.76968 114.21905 118 ft 19 kts 220°
2026-04-12 12:23 30.76890 114.21808 118 ft 10 kts 265°
2026-04-12 12:23 30.76923 114.21744 118 ft 9 kts 311°
2026-04-12 12:23 30.76952 114.21705 118 ft 0 kts 311°